This demonstration page uses our WeatherBlox Daily Observations layout. Learn more.

Hourly Observations for June 25, 2020

Temp ( °F °C ) Dew Point ( °F °C ) Humidity (%) Winds ( mph kmh ) Pressure ( in mb ) Visibility ( mi km ) Precip ( " mm )
12:15 am 00:15 Clear 69 20.8 60 15.6 72 72 ESE 12 19 29.82 1010 10 16.0934 0 0
12:35 am 00:35 Clear 69 20.7 60 15.5 72 72 SE 10 17 29.82 1010 10 16.0934 0 0
12:55 am 00:55 Clear 69 20.5 60 15.5 73 73 ESE 9 15 29.82 1010 10 16.0934 0 0
1:15 am 01:15 Clear 68 20.1 60 15.3 74 74 SE 9 15 29.82 1010 10 16.0934 0 0
1:35 am 01:35 Clear 68 19.9 59 15.2 74 74 SE 9 15 29.82 1010 10 16.0934 0 0
1:55 am 01:55 Clear 67 19.7 59 15.2 75 75 SE 10 17 29.82 1010 10 16.0934 0 0
2:15 am 02:15 Clear 67 19.5 59 15.1 76 76 SE 9 15 29.81 1010 10 16.0934 0 0
2:35 am 02:35 Clear 67 19.3 59 15.1 77 77 SE 9 15 29.81 1010 10 16.0934 0 0
2:55 am 02:55 Clear 67 19.2 59 15.2 78 78 SE 9 15 29.81 1010 10 16.0934 0 0
3:15 am 03:15 Clear 66 19 60 15.3 79 79 SE 10 17 29.81 1009 10 16.0934 0 0
3:35 am 03:35 Clear 65 18.6 60 15.4 82 82 SE 8 13 29.8 1009 10 16.0934 0 0
3:55 am 03:55 Clear 65 18.5 60 15.6 83 83 SSE 7 11 29.8 1009 10 16.0934 0 0
4:10 am 04:10 Clear 65 18.4 60 15.5 83 83 SSE 7 11 29.79 1009 10 16.0934 0 0
4:35 am 04:35 Clear 64 18 60 15.7 87 87 SSE 5 7 29.79 1009 10 16.0934 0 0
4:55 am 04:55 Clear 64 17.7 60 15.7 88 88 SE 6 9 29.8 1009 10 16.0934 0 0
5:15 am 05:15 Clear 63 17.2 60 15.6 90 90 SE 6 9 29.8 1009 10 16.0934 0 0
5:35 am 05:35 Clear 63 17.1 60 15.6 91 91 SE 7 11 29.81 1010 10 16.0934 0 0
5:55 am 05:55 Clear 63 17.1 60 15.6 91 91 SE 7 11 29.81 1010 10 16.0934 0 0
6:15 am 06:15 Sunny 63 17 60 15.5 91 91 SE 8 13 29.8 1009 10 16.0934 0 0
6:35 am 06:35 Sunny 62 16.8 60 15.6 93 93 SE 7 11 29.81 1010 10 16.0934 0 0
6:55 am 06:55 Sunny 63 17 60 15.8 93 93 SE 6 9 29.82 1010 10 16.0934 0 0
7:15 am 07:15 Sunny 63 17.2 61 16 93 93 SE 9 15 29.81 1010 10 16.0934 0 0
7:35 am 07:35 Sunny 64 17.8 61 16.3 91 91 SE 9 15 29.82 1010 10 16.0934 0 0
7:55 am 07:55 Sunny 66 18.9 62 16.9 88 88 SE 10 17 29.82 1010 7 11.26538 0 0
8:15 am 08:15 Sunny 68 20.1 63 17.2 83 83 SE 10 17 29.81 1009 10 16.0934 0 0
8:35 am 08:35 Sunny 70 21.1 63 17.3 79 79 SSE 12 19 29.8 1009 10 16.0934 0 0
8:55 am 08:55 Sunny 73 22.5 63 17.2 72 72 SSE 10 17 29.79 1009 10 16.0934 0 0
9:15 am 09:15 Sunny 74 23.6 63 17 67 67 SSE 10 17 29.78 1008 10 16.0934 0 0
9:35 am 09:35 Sunny 76 24.6 62 16.6 61 61 SSE 13 20 29.77 1008 10 16.0934 0 0
9:55 am 09:55 Sunny 77 25 62 16.5 59 59 SSE 10 17 29.77 1008 10 16.0934 0 0
10:15 am 10:15 Sunny 78 25.5 62 16.7 58 58 SSE 10 17 29.76 1008 10 16.0934 0 0
10:35 am 10:35 Sunny 79 26 62 16.6 56 56 SSE 9 15 29.75 1007 10 16.0934 0 0
10:55 am 10:55 Sunny 80 26.5 62 16.5 54 54 SSE 12 19 29.74 1007 10 16.0934 0 0
11:15 am 11:15 Sunny 81 27.2 62 16.5 52 52 SSE 10 17 29.73 1007 10 16.0934 0 0
11:35 am 11:35 Sunny 82 27.8 62 16.7 51 51 S 13 20 29.73 1007 10 16.0934 0 0
11:55 am 11:55 Sunny 83 28.2 62 16.5 49 49 SSE 12 19 29.71 1006 10 16.0934 0 0
12:15 pm 12:15 Sunny 84 28.7 62 16.7 48 48 S 13 20 29.71 1006 10 16.0934 0 0
12:35 pm 12:35 Sunny 84 29.1 61 16.2 46 46 SSE 12 19 29.71 1006 10 16.0934 0 0
12:55 pm 12:55 Sunny 86 30 62 16.5 44 44 S 13 20 29.7 1006 10 16.0934 0 0
1:15 pm 13:15 Sunny 87 30.3 62 16.5 43 43 SSE 12 19 29.69 1005 10 16.0934 0 0
1:35 pm 13:35 Sunny 86 30.2 62 16.4 43 43 S 9 15 29.68 1005 10 16.0934 0 0
1:55 pm 13:55 Sunny 86 30.2 62 16.7 44 44 SSE 9 15 29.68 1005 10 16.0934 0 0
2:15 pm 14:15 Sunny 88 31 62 16.7 42 42 S 12 19 29.67 1005 10 16.0934 0 0
2:35 pm 14:35 Sunny 90 32.3 62 16.7 39 39 S 15 24 29.66 1004 10 16.0934 0 0
2:55 pm 14:55 Sunny 90 32 62 16.4 39 39 S 15 24 29.65 1004 10 16.0934 0 0
3:15 pm 15:15 Sunny 90 32 61 16.1 38 38 S 13 20 29.65 1004 10 16.0934 0 0
3:35 pm 15:35 Sunny 90 32 62 16.7 40 40 SSE 15 24 29.64 1004 10 16.0934 0 0
3:55 pm 15:55 Sunny 92 33.6 62 16.7 36 36 SSE 14 22 29.62 1003 10 16.0934 0 0
4:15 pm 16:15 Sunny 92 33.2 62 16.8 37 37 SSE 17 28 29.62 1003 10 16.0934 0 0
4:35 pm 16:35 Sunny 92 33.6 63 17.1 37 37 S 17 28 29.61 1003 10 16.0934 0 0
4:55 pm 16:55 Sunny 92 33.2 63 17.2 38 38 SSE 14 22 29.6 1003 10 16.0934 0 0
5:15 pm 17:15 Sunny 92 33.5 63 17.1 38 38 SSE 16 26 29.59 1002 10 16.0934 0 0
5:35 pm 17:35 Sunny 93 33.8 62 16.7 36 36 SSE 13 20 29.59 1002 10 16.0934 0 0
5:55 pm 17:55 Sunny 93 34 62 16.9 36 36 SSE 12 19 29.58 1002 10 16.0934 0 0
6:15 pm 18:15 Sunny 94 34.5 61 15.9 33 33 S 18 30 29.56 1001 10 16.0934 0 0
6:35 pm 18:35 Sunny 93 33.7 58 14.3 31 31 S 17 28 29.56 1001 10 16.0934 0 0
6:55 pm 18:55 Sunny 91 32.6 58 14.2 33 33 S 14 22 29.57 1001 10 16.0934 0 0
7:15 pm 19:15 Sunny 88 31.2 59 15.2 38 38 S 13 20 29.58 1002 10 16.0934 0 0
7:35 pm 19:35 Sunny 88 31 58 14.6 37 37 S 15 24 29.59 1002 10 16.0934 0 0
7:55 pm 19:55 Sunny 86 30.1 59 15 40 40 S 16 26 29.6 1002 10 16.0934 0 0
8:15 pm 20:15 Sunny 86 29.8 59 14.9 40 40 S 14 22 29.61 1003 10 16.0934 0 0
8:35 pm 20:35 Sunny 85 29.6 59 15 41 41 SSW 14 22 29.63 1003 10 16.0934 0 0
8:55 pm 20:55 Sunny 85 29.5 59 14.9 41 41 S 14 22 29.64 1004 10 16.0934 0 0
9:15 pm 21:15 Clear 84 29 56 13.1 38 38 SSW 10 17 29.65 1004 10 16.0934 0 0
9:35 pm 21:35 Clear 84 28.8 54 12 35 35 S 8 13 29.64 1004 10 16.0934 0 0
9:55 pm 21:55 Clear 82 27.6 55 12.6 40 40 SSE 10 17 29.67 1005 10 16.0934 0 0
10:15 pm 22:15 Partly Cloudy with Light Rain 82 27.5 54 12.3 39 39 SW 23 37 29.7 1006 10 16.0934 0 0
10:35 pm 22:35 Partly Cloudy 81 27.1 56 13.2 42 42 SW 13 20 29.69 1005 10 16.0934 0 0
10:55 pm 22:55 Clear 80 26.7 56 13.1 43 43 SW 12 19 29.69 1006 10 16.0934 0 0
11:15 pm 23:15 Clear 81 27 54 12 39 39 SW 12 19 29.7 1006 10 16.0934 0 0
11:35 pm 23:35 Clear 83 28.2 51 10.3 33 33 WSW 10 17 29.71 1006 10 16.0934 0 0
11:55 pm 23:55 Clear 82 27.5 51 10.5 35 35 WSW 7 11 29.7 1006 10 16.0934 0 0

Powered by AerisWeather